Overview Statistics Trail Chart Weather Telemetry Raw packets
 

This is the latest recevied weather packets stored in our database for station/object OM6ACB-6. If no packets are shown the sender has not sent any weather packets the latest 10 day(s).

<< 12 13 14 15 16 17 18 >>
Time Temp. Humidity Pressure Rain* Wind** Luminosity Snow
1788462898 13.33° C 26% 1021.9 hPa 0 mm - - -
1788462298 13.33° C 26% 1022 hPa 0 mm - - -
1788461698 13.89° C 26% 1021.9 hPa 0 mm - - -
1788461097 13.89° C 26% 1021.9 hPa 0 mm - - -
1788460497 13.89° C 26% 1021.8 hPa 0 mm - - -
1788459897 14.44° C 25% 1021.8 hPa 0 mm - - -
1788459297 15° C 25% 1021.9 hPa 0 mm - - -
1788458696 15.56° C 25% 1021.8 hPa 0 mm - - -
1788458096 16.11° C 24% 1021.9 hPa 0 mm - - -
1788457496 17.22° C 24% 1022.1 hPa 0 mm - - -
1788456895 17.78° C 24% 1022.2 hPa 0 mm - - -
1788456295 17.78° C 24% 1021.9 hPa 0 mm - - -
1788455695 17.78° C 24% 1022 hPa 0 mm - - -
1788455094 18.33° C 23% 1022.3 hPa 0 mm - - -
1788454494 19.44° C 23% 1022.4 hPa 0 mm - - -
1788453894 20.56° C 22% 1022.6 hPa 0 mm - - -
1788453294 20.56° C 22% 1022.6 hPa 0 mm - - -
1788452693 21.67° C 22% 1022.7 hPa 0 mm - - -
1788452093 23.33° C 21% 1023 hPa 0 mm - - -
1788451493 22.22° C 21% 1022.9 hPa 0 mm - - -
1788450892 23.33° C 21% 1023.1 hPa 0 mm - - -
1788450292 23.33° C 21% 1023.1 hPa 0 mm - - -
1788449692 23.33° C 21% 1023.2 hPa 0 mm - - -
1788449091 22.78° C 21% 1023.2 hPa 0 mm - - -
1788448491 23.33° C 21% 1023.2 hPa 0 mm - - -

* Rain latest hour (hover to see other rain measurements)
** Current wind speed in m/s (hover to see current wind gust speed)